Temp
47 47 50 50 50 51 52 52 52 52 52 52 51 52 52 52 53 51 46 47 44 39 38 43 46 41 41 39 36 41 44 42 39 37 37 36 35 40 38 42 38 34 33 30 32 32 32 52 49 42 45 46 49 49
48 47 48 50 50 50 50 51 51 51 51 51 51 51 51 51 53 51 43 47 47 42 37 41 46 47 46 45 41 41 42 42 41 35 36 37 34 36 36 30 44 35 38 33 37 38 47 51 50 53 50 48 49 48
47 47 48 48 50 49 50 50 50 50 50 50 51 51 51 52 53 50 44 45 43 38 37 37 41 48 52 53 50 39 41 45 43 44 38 38 36 37 30 32 39 44 47 39 39 45 47 49 52 53 53 51 51 50
47 47 48 48 48 49 49 49 49 49 49 50 50 50 51 52 52 50 44 44 43 39 33 35 46 43 50 52 53 52 48 50 45 43 40 30 32 43 34 39 37 41 45 42 37 45 49 52 52 54 55 53 50 48
48 47 47 48 48 48 48 49 49 49 49 49 50 50 51 51 51 48 45 44 45 42 31 30 40 45 48 48 50 51 48 46 42 40 38 37 41 41 35 36 32 44 43 35 35 48 47 48 53 54 50 49 49 48
48 47 47 47 48 48 48 48 48 49 49 49 49 50 50 51 51 45 39 43 46 41 32 28 36 40 43 47 46 45 46 45 43 41 39 42 47 41 31 27 43 48 49 49 46 50 50 51 53 53 52 50 48 47
48 48 48 47 47 48 48 48 48 48 49 49 49 49 50 50 50 42 38 43 47 42 32 29 31 37 41 43 42 41 44 43 42 39 38 40 40 42 32 30 44 48 48 49 50 49 45 49 48 52 50 50 49 48
48 48 48 48 47 48 48 48 48 49 49 49 49 49 49 50 48 42 43 48 45 38 35 25 29 30 39 35 33 39 34 38 39 38 36 36 38 36 30 39 46 50 51 51 52 53 49 50 49 50 48 46 44 43
47 47 47 47 48 48 48 48 48 49 49 49 49 49 47 43 40 40 49 47 43 37 25 30 26 23 39 37 36 37 36 28 37 29 33 36 33 31 39 42 44 46 47 49 52 50 48 47 48 47 45 43 43 41
47 47 47 47 47 47 48 48 49 49 50 49 46 38 32 40 49 48 42 37 33 33 33 27 32 31 36 34 34 34 35 32 27 32 37 30 34 44 43 46 47 47 49 51 44 42 43 42 44 45 44 43 44 43
47 47 47 47 47 47 48 48 49 48 48 39 32 32 39 48 41 36 31 31 32 29 33 34 33 32 36 32 33 35 32 33 28 28 31 28 28 34 47 48 51 52 53 52 48 47 46 47 45 43 43 41 42 40
47 47 47 47 47 47 48 48 48 45 40 38 39 43 41 36 32 29 28 29 30 25 32 32 31 33 34 39 32 34 31 32 27 32 25 24 31 43 47 48 50 49 48 47 48 48 49 47 45 43 42 41 40 42
47 47 47 47 47 47 47 48 48 46 45 43 38 32 32 31 26 24 23 25 24 27 30 32 31 34 35 37 32 32 30 25 33 22 26 29 36 46 46 47 47 47 46 45 46 46 45 44 44 42 41 40 40 38
47 47 47 47 47 47 48 48 46 46 41 33 31 26 26 25 28 27 30 30 30 30 34 37 33 34 34 32 33 30 32 31 21 21 25 29 39 44 47 46 46 45 45 44 43 43 43 41 40 40 38 37 36 33
47 47 47 47 47 47 48 47 48 45 37 32 32 24 25 29 28 29 34 33 35 39 39 35 32 34 31 30 31 32 27 24 27 26 31 35 41 43 43 44 44 43 40 40 42 41 32 29 32 32 28 34 33 30
47 47 46 47 47 48 48 47 46 39 36 33 32 29 29 27 22 26 31 33 37 40 40 36 30 30 30 31 28 27 27 26 29 31 35 38 41 42 43 43 43 43 42 41 39 36 34 30 29 30 29 29 25 28
46 42 47 47 47 47 48 43 37 32 32 31 29 29 26 29 27 26 31 34 39 39 29 31 29 29 30 28 27 28 25 30 31 34 35 40 41 43 43 42 39 40 41 38 34 33 32 30 30 29 28 27 29 27
42 45 47 47 47 46 39 36 34 32 30 31 30 27 30 29 29 33 32 38 40 39 38 34 34 29 25 27 28 33 32 34 34 35 36 40 42 42 43 41 38 39 38 34 33 31 30 30 29 27 28 28 27 28
45 45 46 47 45 34 32 32 35 30 30 32 31 32 32 32 34 38 39 42 42 43 38 35 32 30 32 31 31 30 32 34 35 36 36 41 41 41 40 38 37 36 34 32 31 30 29 30 28 27 27 28 27 27
46 46 45 43 44 36 32 32 38 33 30 32 35 34 35 35 37 35 37 39 41 37 32 35 37 36 33 33 34 35 36 36 33 32 32 34 31 36 36 35 35 34 32 30 30 28 29 27 27 28 27 27 26 24
45 43 44 45 41 40 36 34 34 34 33 29 34 36 31 34 30 36 38 39 32 36 35 36 38 36 37 34 38 38 37 40 36 36 37 33 35 34 34 34 34 31 30 29 29 28 27 28 27 28 25 21 22 25
43 45 41 42 36 36 35 38 33 35 34 32 34 34 30 31 29 30 35 36 37 38 34 37 34 38 35 37 39 43 43 42 40 37 31 33 34 33 32 32 31 29 29 29 30 29 28 28 28 28 23 21 23 25
45 42 38 37 32 32 32 37 32 33 31 32 32 31 30 29 31 37 31 33 34 37 39 40 43 43 43 45 43 43 42 40 37 37 36 34 34 33 32 32 32 29 28 27 28 28 27 25 25 24 25 25 24 24
42 34 32 32 32 30 34 32 36 34 32 31 30 29 30 31 31 31 29 30 36 36 39 40 41 37 38 40 38 39 39 38 37 35 35 34 33 32 33 33 32 32 32 30 29 26 25 24 23 25 26 26 25 24
32 30 32 29 31 30 29 30 30 29 25 27 28 28 30 33 30 28 28 29 31 32 35 36 38 40 40 41 40 38 38 39 36 36 35 34 32 32 32 32 32 32 31 27 23 24 23 26 28 27 27 26 24 24
27 28 26 29 29 26 29 26 24 24 26 24 28 30 30 28 23 24 29 31 33 32 36 37 38 37 36 41 39 35 37 36 36 35 35 35 35 33 32 29 28 27 29 30 28 26 26 28 28 27 26 24 23 19
20 23 30 34 32 32 28 29 30 28 21 21 29 28 24 18 20 29 29 31 30 30 32 33 36 40 40 36 35 35 36 36 36 37 36 35 35 35 35 33 28 29 30 30 31 30 29 29 28 27 24 23 21 21
25 31 23 29 27 31 24 25 24 23 27 29 29 22 23 25 27 29 30 32 32 33 33 31 32 34 35 34 32 30 28 28 28 30 31 31 28 23 24 25 26 29 31 31 31 31 30 29 28 25 23 21 14 12
26 30 30 20 23 26 24 25 26 28 29 31 27 24 26 28 28 29 29 30 32 32 31 30 31 31 32 31 31 31 33 34 34 33 34 31 27 26 21 24 26 26 29 29 28 30 29 28 25 24 21 20 21 16
27 31 25 21 20 21 26 29 28 24 29 28 28 28 27 26 27 29 30 30 29 32 31 28 30 21 23 27 25 29 30 31 30 33 31 29 25 24 24 27 28 28 29 28 26 25 26 23 23 20 21 20 20 18
30 27 24 24 23 22 21 21 26 28 29 30 28 20 20 25 26 28 27 27 29 32 30 30 29 23 23 24 25 26 28 31 31 30 29 26 27 27 26 28 29 29 28 28 27 25 24 24 24 21 21 19 18 19
27 26 23 21 22 26 26 28 27 27 28 27 26 27 26 23 23 25 25 28 29 30 30 24 23 27 28 28 30 30 31 30 30 31 31 31 32 32 31 29 31 29 28 23 24 24 24 23 22 21 18 17 17 16
25 24 15 15 20 21 24 21 25 23 25 25 25 26 19 19 19 24 21 27 29 30 31 31 32 32 31 30 29 29 26 27 27 30 32 32 31 31 31 30 30 29 27 22 23 22 21 20 19 18 17 17 16 14
MSLP
997.93 997.51 997.22 997.90 998.97 1000.05 1001.01 1002.13 1003.43 1004.76 1006.21 1007.71 1009.28 1010.64 1011.71 1013.09 1014.31 1015.18 1016.55 1016.49 1017.28 1018.26 1018.83 1018.52 1018.09 1017.99 1017.65 1017.43 1017.26 1017.03 1017.18 1017.64 1018.71 1019.47 1019.77 1020.14 1020.04 1018.85 1018.77 1018.30 1018.41 1019.38 1020.33 1020.83 1021.06 1020.75 1018.70 1015.79 1016.07 1016.14 1015.95 1016.28 1016.85 1017.74
997.76 997.70 997.14 998.12 998.96 1000.06 1000.80 1001.81 1003.09 1004.28 1005.79 1007.38 1008.83 1010.21 1011.72 1013.19 1014.20 1014.91 1016.73 1016.74 1017.01 1018.25 1019.55 1019.41 1018.47 1017.93 1017.93 1017.77 1017.76 1017.39 1017.54 1017.45 1017.92 1019.15 1019.79 1020.01 1019.90 1019.03 1018.57 1018.43 1017.90 1018.39 1017.93 1018.66 1018.89 1017.76 1016.08 1015.45 1015.18 1014.86 1015.18 1015.78 1016.60 1017.31
997.78 998.01 997.88 998.42 999.17 1000.08 1000.99 1002.06 1003.22 1004.37 1005.78 1007.13 1008.64 1010.22 1011.80 1012.93 1013.91 1014.87 1016.31 1016.92 1017.62 1019.11 1019.62 1019.51 1018.68 1018.16 1017.84 1017.71 1017.64 1017.86 1018.00 1018.07 1018.08 1018.11 1018.90 1019.26 1019.28 1018.69 1018.62 1018.31 1017.75 1017.12 1016.85 1017.40 1017.76 1016.43 1015.77 1014.98 1014.73 1014.71 1014.92 1015.68 1016.18 1016.63
998.02 998.18 998.19 998.73 999.56 1000.31 1001.32 1002.29 1003.51 1004.50 1005.99 1007.40 1008.91 1010.38 1011.79 1013.02 1014.00 1014.62 1016.00 1016.69 1017.42 1019.05 1020.03 1019.75 1018.88 1018.61 1018.11 1017.83 1017.73 1017.89 1018.35 1018.41 1018.19 1018.35 1018.64 1019.13 1019.06 1018.21 1018.03 1017.47 1017.45 1016.42 1016.35 1016.59 1016.41 1015.62 1015.12 1014.55 1014.18 1014.41 1014.87 1015.35 1015.92 1016.48
998.28 998.44 998.50 999.30 999.99 1000.98 1001.71 1002.82 1004.28 1005.35 1006.60 1007.93 1009.23 1010.75 1011.93 1013.08 1013.99 1014.95 1015.82 1016.50 1016.80 1018.02 1019.61 1019.99 1019.43 1018.80 1018.44 1018.15 1018.00 1017.89 1018.71 1018.53 1018.76 1018.71 1019.03 1019.15 1018.51 1018.48 1018.13 1017.77 1017.13 1015.88 1015.59 1015.72 1015.68 1014.66 1014.36 1014.35 1013.99 1014.25 1014.82 1015.33 1015.70 1016.29
998.43 998.92 999.36 999.76 1000.68 1001.68 1002.63 1003.63 1004.80 1006.08 1007.25 1008.28 1009.66 1010.98 1012.09 1013.11 1013.90 1015.11 1016.75 1016.92 1016.92 1017.70 1019.36 1020.19 1019.88 1019.29 1018.89 1018.33 1018.30 1018.34 1018.44 1018.59 1019.17 1019.73 1019.61 1019.09 1018.28 1018.55 1018.61 1018.00 1016.15 1015.26 1014.87 1014.76 1014.77 1014.34 1014.30 1014.16 1014.04 1014.09 1014.66 1015.17 1015.66 1016.14
998.63 999.11 999.78 1000.57 1001.24 1002.16 1003.29 1004.34 1005.47 1006.61 1007.82 1008.96 1010.11 1011.18 1012.19 1013.34 1014.10 1015.34 1016.10 1016.27 1016.69 1017.75 1019.45 1020.38 1020.18 1019.76 1019.24 1018.86 1018.76 1018.68 1018.63 1018.75 1019.08 1019.44 1019.11 1018.91 1018.73 1018.35 1018.48 1017.29 1015.74 1014.84 1014.47 1014.39 1014.25 1014.45 1014.38 1014.30 1014.15 1014.08 1014.36 1014.71 1015.17 1015.70
998.91 999.60 1000.26 1001.11 1001.87 1002.73 1003.64 1004.70 1005.81 1006.96 1008.19 1009.38 1010.50 1011.54 1012.80 1013.53 1014.71 1015.95 1015.89 1016.20 1016.70 1018.60 1019.58 1020.62 1020.70 1020.23 1019.31 1019.35 1019.43 1019.07 1019.27 1019.24 1018.99 1019.02 1018.92 1018.71 1018.53 1018.19 1017.24 1015.27 1014.85 1014.51 1014.06 1013.83 1013.51 1013.49 1013.79 1013.85 1013.93 1014.09 1014.19 1014.78 1015.58 1016.11
999.24 999.94 1000.64 1001.47 1002.27 1003.09 1004.09 1005.15 1006.27 1007.50 1008.70 1009.94 1010.99 1012.16 1013.42 1014.12 1015.17 1016.04 1016.18 1016.43 1017.25 1018.84 1020.03 1020.87 1020.58 1019.95 1019.26 1019.23 1019.37 1019.46 1019.47 1019.64 1019.12 1019.33 1018.91 1018.65 1017.88 1016.37 1014.24 1014.21 1014.05 1013.63 1013.59 1013.34 1012.99 1013.04 1013.27 1013.53 1013.58 1013.82 1014.31 1014.90 1015.38 1015.99
999.06 999.93 1000.87 1001.64 1002.59 1003.55 1004.60 1005.74 1006.68 1007.76 1008.92 1010.20 1011.73 1013.26 1014.33 1014.48 1014.97 1015.88 1017.09 1017.65 1018.70 1018.99 1019.57 1019.81 1019.49 1019.60 1019.22 1019.39 1019.83 1019.99 1019.72 1019.60 1019.21 1018.60 1018.03 1017.36 1015.49 1013.82 1013.45 1013.21 1012.94 1012.91 1012.84 1012.90 1012.99 1013.04 1013.11 1013.30 1013.61 1013.67 1013.95 1014.37 1014.78 1015.24
999.08 1000.00 1000.91 1001.86 1002.89 1004.08 1005.01 1006.02 1007.03 1008.19 1009.43 1011.28 1012.87 1013.57 1013.87 1014.18 1015.61 1017.52 1017.76 1018.15 1018.73 1019.26 1018.88 1018.31 1018.14 1018.58 1018.67 1018.76 1019.23 1019.44 1019.34 1019.14 1018.82 1017.82 1017.53 1015.92 1013.45 1012.59 1011.89 1011.83 1011.83 1011.52 1011.48 1011.84 1012.15 1012.34 1012.41 1012.59 1012.85 1013.20 1013.45 1013.77 1014.10 1014.76
999.00 999.93 1000.82 1002.08 1003.21 1004.31 1005.17 1006.26 1007.15 1008.20 1009.84 1011.13 1011.84 1013.06 1013.94 1014.85 1016.02 1016.63 1016.96 1017.74 1017.71 1017.82 1017.21 1016.94 1017.01 1017.01 1017.70 1017.84 1018.62 1018.93 1018.88 1019.02 1018.04 1017.13 1017.09 1015.07 1012.98 1011.28 1010.73 1010.29 1010.50 1010.92 1011.16 1011.26 1011.33 1011.54 1011.41 1011.68 1011.93 1012.31 1012.60 1012.84 1013.20 1013.36
998.98 1000.10 1001.19 1002.38 1003.44 1004.36 1005.48 1006.61 1007.52 1008.85 1009.61 1011.24 1012.20 1013.26 1013.65 1014.57 1014.72 1014.86 1014.90 1016.10 1016.24 1015.35 1015.22 1015.25 1016.23 1016.56 1017.15 1017.32 1017.94 1018.16 1018.26 1018.05 1017.08 1016.83 1015.34 1013.72 1012.17 1010.77 1010.09 1010.03 1010.09 1010.13 1010.32 1010.51 1010.50 1010.62 1010.86 1011.09 1011.14 1011.49 1011.74 1011.82 1012.31 1013.08
999.09 1000.26 1001.49 1002.61 1003.49 1004.49 1005.62 1006.75 1007.92 1008.72 1009.67 1011.54 1012.07 1012.62 1013.10 1013.50 1013.30 1013.30 1012.99 1012.65 1013.04 1013.60 1014.12 1014.83 1015.43 1016.03 1016.47 1016.99 1017.37 1017.39 1017.00 1016.76 1016.34 1015.42 1014.00 1012.90 1011.23 1010.30 1009.64 1009.68 1009.96 1009.97 1010.08 1010.29 1010.45 1010.50 1010.66 1010.93 1011.24 1011.26 1011.31 1011.47 1012.11 1013.13
999.23 1000.43 1001.59 1002.73 1003.71 1004.78 1005.83 1006.98 1007.90 1008.64 1010.11 1011.21 1011.65 1011.96 1012.54 1012.03 1011.89 1011.72 1011.87 1012.19 1012.37 1012.63 1013.43 1014.26 1014.87 1015.31 1015.96 1016.14 1016.14 1016.03 1016.22 1015.60 1014.54 1013.24 1012.25 1011.06 1010.33 1010.09 1009.87 1009.66 1009.72 1009.78 1009.79 1009.97 1010.07 1010.37 1010.78 1011.10 1011.23 1011.25 1011.31 1011.53 1012.21 1013.23
999.40 1000.93 1001.70 1002.68 1003.71 1004.80 1006.03 1007.42 1008.38 1009.24 1010.15 1010.90 1011.27 1011.39 1011.52 1011.87 1011.88 1011.50 1011.68 1011.69 1011.54 1011.98 1012.77 1013.40 1014.15 1014.65 1014.68 1014.52 1014.89 1014.68 1014.63 1013.70 1012.63 1011.50 1010.93 1010.39 1010.11 1009.78 1009.66 1009.45 1009.44 1009.44 1009.55 1009.67 1010.00 1010.72 1011.20 1011.58 1011.79 1012.16 1012.47 1012.81 1013.29 1013.60
999.46 999.53 1000.77 1002.37 1003.60 1004.88 1006.30 1007.67 1008.89 1009.70 1010.15 1010.28 1010.26 1010.20 1010.23 1010.11 1010.33 1011.14 1010.81 1010.86 1010.95 1011.38 1011.52 1012.32 1013.31 1013.27 1013.26 1013.41 1013.43 1013.04 1012.39 1011.39 1011.07 1010.74 1010.47 1010.02 1009.76 1009.40 1009.27 1009.16 1009.23 1009.25 1009.44 1009.96 1010.65 1011.12 1011.58 1012.03 1012.38 1012.93 1013.45 1013.98 1014.19 1014.82
998.66 999.41 1000.37 1001.97 1003.65 1005.48 1006.77 1007.98 1008.69 1009.21 1009.12 1009.03 1009.23 1009.39 1009.54 1009.53 1009.68 1009.81 1009.73 1009.59 1010.01 1010.29 1010.56 1010.68 1011.38 1012.23 1012.13 1011.96 1011.64 1010.84 1010.59 1010.26 1010.32 1010.10 1009.82 1009.42 1009.17 1009.00 1008.91 1009.03 1009.20 1009.40 1009.82 1010.41 1011.00 1011.51 1012.03 1012.52 1013.01 1013.60 1014.07 1014.53 1014.98 1015.55
998.27 999.10 1000.14 1001.54 1003.04 1005.01 1006.17 1007.68 1007.58 1007.69 1007.68 1007.77 1007.95 1008.20 1008.70 1008.79 1008.55 1008.60 1008.68 1008.59 1008.49 1008.44 1009.38 1010.29 1010.85 1010.77 1010.23 1009.67 1009.57 1010.09 1009.83 1009.84 1009.82 1009.42 1009.20 1008.96 1008.80 1008.68 1008.59 1008.81 1009.19 1009.65 1010.15 1010.65 1011.16 1011.58 1012.11 1012.64 1013.09 1013.67 1014.24 1014.75 1015.29 1015.81
998.37 999.46 1000.60 1001.70 1003.02 1004.34 1005.47 1006.33 1006.51 1006.78 1006.60 1006.34 1006.80 1007.52 1007.67 1007.57 1007.49 1007.74 1007.87 1007.98 1008.12 1008.53 1009.01 1009.11 1008.67 1008.32 1008.47 1008.87 1008.82 1008.60 1008.49 1008.40 1009.12 1009.46 1009.38 1008.68 1008.48 1008.51 1008.65 1008.96 1009.44 1009.85 1010.42 1010.99 1011.53 1012.01 1012.67 1013.27 1013.62 1013.90 1014.34 1014.74 1015.30 1015.98
999.15 1000.27 1001.35 1002.19 1002.96 1003.62 1004.39 1005.03 1005.40 1005.52 1005.31 1005.46 1005.49 1006.38 1006.93 1006.88 1007.07 1007.17 1007.24 1007.45 1008.21 1007.89 1007.32 1007.10 1007.22 1007.49 1007.58 1007.65 1007.49 1007.72 1007.83 1008.18 1008.27 1008.41 1008.49 1008.70 1008.39 1008.48 1008.77 1009.11 1009.48 1009.94 1010.54 1011.17 1011.67 1012.20 1012.64 1012.99 1013.39 1013.88 1014.47 1015.04 1015.39 1015.96
998.75 1000.12 1001.18 1002.33 1003.09 1003.51 1003.65 1003.76 1004.00 1004.59 1005.03 1005.19 1005.62 1005.85 1006.42 1007.03 1006.90 1006.72 1006.74 1007.21 1007.33 1006.93 1006.62 1006.57 1006.42 1006.36 1006.73 1007.04 1006.82 1006.58 1006.61 1006.84 1007.02 1007.39 1007.67 1007.79 1008.29 1008.79 1009.10 1009.07 1009.64 1010.16 1010.54 1010.87 1011.21 1011.71 1012.27 1012.81 1013.32 1013.87 1014.52 1015.15 1015.57 1016.19
998.81 1000.28 1001.44 1002.19 1002.62 1002.94 1003.15 1003.27 1003.74 1004.15 1004.41 1005.05 1005.40 1005.92 1006.39 1006.34 1005.85 1005.94 1006.15 1005.63 1005.35 1004.99 1004.73 1005.14 1005.28 1005.26 1005.69 1005.71 1006.48 1006.32 1006.20 1006.46 1006.84 1006.91 1007.07 1007.41 1007.57 1007.89 1008.27 1008.73 1009.12 1009.72 1010.29 1010.62 1010.87 1011.40 1012.08 1012.56 1013.24 1013.93 1014.58 1015.10 1015.61 1016.33
999.19 1000.55 1001.06 1001.70 1001.98 1002.33 1002.31 1002.71 1002.93 1003.62 1004.14 1004.75 1005.32 1005.62 1005.91 1005.75 1005.73 1005.74 1005.63 1005.11 1004.28 1004.35 1004.45 1004.25 1004.61 1005.03 1005.30 1005.53 1005.73 1005.48 1005.31 1005.87 1006.38 1006.73 1006.75 1007.17 1007.61 1007.88 1008.06 1008.37 1008.81 1009.06 1009.28 1009.79 1010.65 1011.40 1012.07 1012.67 1013.19 1013.87 1014.38 1014.96 1015.57 1016.13
998.98 1000.26 1000.51 1000.98 1001.44 1001.96 1002.27 1002.56 1002.84 1003.41 1003.96 1004.38 1004.62 1005.15 1005.53 1005.77 1005.99 1005.78 1005.33 1004.45 1004.03 1003.96 1003.74 1003.77 1003.84 1004.03 1004.37 1004.37 1004.51 1004.69 1004.88 1005.32 1005.82 1006.14 1006.25 1006.82 1007.33 1007.88 1008.27 1008.40 1008.66 1008.77 1009.11 1009.96 1010.91 1011.40 1012.05 1012.47 1013.02 1013.63 1014.18 1014.72 1015.33 1016.08
998.67 999.41 999.59 999.89 1000.56 1000.84 1001.42 1002.01 1002.44 1002.96 1003.26 1003.83 1004.12 1004.78 1005.34 1005.70 1005.95 1005.37 1004.30 1003.40 1003.17 1003.06 1002.94 1002.81 1003.00 1003.55 1003.61 1003.39 1003.70 1003.97 1004.26 1004.70 1005.16 1005.65 1005.82 1006.36 1006.66 1007.13 1007.74 1008.20 1008.55 1008.86 1008.93 1009.16 1010.01 1010.91 1011.62 1012.11 1012.67 1013.33 1014.00 1014.66 1015.24 1016.04
999.03 999.20 999.14 998.73 999.11 999.72 1000.57 1001.13 1001.53 1002.04 1003.17 1003.54 1003.98 1004.80 1005.33 1005.76 1005.28 1003.85 1003.47 1003.42 1003.36 1003.20 1002.92 1002.63 1002.42 1002.42 1002.45 1003.06 1003.40 1003.46 1003.56 1004.04 1004.44 1004.74 1004.91 1005.38 1005.86 1006.20 1006.65 1007.30 1007.92 1008.04 1008.27 1008.79 1009.36 1010.01 1010.88 1011.66 1012.33 1013.00 1013.80 1014.58 1015.09 1015.62
998.55 998.53 998.99 999.36 999.60 1000.02 1000.77 1001.33 1001.76 1002.29 1002.24 1002.56 1003.43 1004.19 1004.43 1004.26 1003.88 1003.88 1003.95 1003.87 1003.76 1003.44 1003.24 1002.98 1002.62 1002.45 1002.69 1003.01 1003.19 1003.70 1004.17 1004.34 1004.66 1004.99 1005.34 1005.88 1006.33 1006.58 1006.69 1006.80 1006.93 1007.36 1007.88 1008.41 1008.99 1009.66 1010.38 1011.09 1011.85 1012.68 1013.52 1014.28 1015.04 1015.56
998.68 999.05 999.28 1000.28 1000.43 1000.84 1001.35 1001.39 1001.47 1001.55 1001.51 1001.84 1002.59 1003.19 1003.52 1004.04 1004.50 1004.57 1004.50 1004.31 1004.01 1003.88 1003.92 1003.89 1003.75 1003.50 1003.38 1003.50 1003.81 1004.04 1004.13 1004.29 1004.89 1005.40 1005.70 1006.38 1006.99 1007.45 1007.34 1007.16 1007.47 1007.75 1008.10 1008.63 1009.03 1009.42 1010.08 1010.81 1011.58 1012.27 1013.08 1013.85 1014.64 1015.40
999.33 999.35 1000.09 1000.85 1001.14 1001.69 1001.93 1001.79 1001.89 1001.95 1001.84 1002.05 1002.51 1003.23 1003.92 1004.54 1004.89 1004.89 1004.74 1004.60 1004.50 1004.32 1004.37 1004.42 1004.40 1004.27 1004.42 1004.36 1004.74 1004.94 1005.02 1004.95 1004.88 1005.04 1005.44 1006.08 1006.57 1006.84 1007.16 1007.34 1007.59 1007.91 1008.28 1008.83 1009.50 1010.23 1010.72 1011.38 1012.05 1012.81 1013.59 1014.33 1014.99 1015.62
999.38 999.87 1000.61 1001.28 1002.10 1002.42 1002.39 1002.16 1002.10 1002.18 1002.41 1002.77 1002.94 1003.64 1004.51 1004.94 1005.13 1005.12 1005.18 1005.10 1004.81 1004.62 1004.63 1004.69 1004.72 1004.73 1004.80 1004.95 1005.09 1005.28 1005.42 1005.37 1005.17 1005.06 1005.20 1005.50 1005.99 1006.47 1006.89 1007.21 1007.51 1007.94 1008.43 1008.99 1009.72 1010.38 1011.07 1011.75 1012.37 1013.11 1013.76 1014.38 1014.90 1015.37
999.84 1000.51 1001.45 1002.39 1002.87 1002.91 1002.71 1002.85 1002.99 1003.13 1003.30 1003.50 1003.83 1004.22 1004.76 1005.15 1005.55 1005.52 1005.40 1005.26 1005.03 1004.84 1004.77 1004.87 1005.03 1005.01 1004.92 1004.86 1004.94 1005.03 1005.09 1005.16 1005.27 1005.26 1005.44 1005.74 1006.13 1006.49 1006.96 1007.38 1007.79 1008.24 1008.82 1009.48 1010.10 1010.73 1011.27 1011.88 1012.56 1013.17 1013.90 1014.52 1015.05 1015.55
1000.81 1001.23 1001.84 1002.58 1003.14 1003.34 1003.37 1003.47 1003.63 1003.95 1004.10 1004.30 1004.51 1004.64 1005.08 1005.51 1005.79 1005.65 1005.52 1005.36 1005.15 1004.72 1004.66 1004.72 1004.85 1004.94 1005.02 1005.06 1005.07 1005.19 1005.33 1005.36 1005.46 1005.55 1005.76 1006.06 1006.42 1006.89 1007.35 1007.75 1008.15 1008.72 1009.36 1010.03 1010.56 1011.12 1011.74 1012.31 1012.94 1013.47 1014.05 1014.60 1015.10 1015.59
Wind_Speed
11 7 22 24 24 23 32 32 34 34 33 32 29 27 23 22 18 7 2 1 5 3 3 5 5 4 4 3 4 3 5 5 4 3 4 3 4 8 5 6 8 8 7 5 4 2 13 6 2 7 7 3 7 7
9 7 4 23 24 22 25 31 31 33 31 31 30 25 23 22 19 8 3 1 3 5 4 3 3 2 3 0 1 4 1 3 5 4 2 3 3 2 5 4 2 5 9 8 10 9 6 4 5 5 6 7 7 8
9 9 12 15 22 20 28 26 31 28 31 28 28 26 25 23 19 8 4 4 5 4 4 4 2 5 5 3 1 3 3 3 3 2 4 3 4 4 5 6 5 4 5 5 5 6 10 8 4 5 7 8 8 8
13 9 11 23 18 24 24 27 25 26 25 25 25 24 24 23 17 9 5 2 6 3 3 5 3 2 6 3 2 4 2 4 1 1 2 2 2 3 4 4 5 7 6 6 4 6 4 5 6 6 6 5 6 6
16 13 9 21 22 20 21 29 28 24 25 24 24 24 23 21 15 8 4 1 4 5 5 3 2 3 5 3 2 4 5 2 3 3 2 2 2 2 3 3 3 3 6 5 6 7 5 6 4 4 7 7 9 10
19 18 13 18 22 22 22 22 24 24 22 21 22 22 21 20 15 6 4 3 2 4 5 1 4 1 3 3 2 2 2 3 4 1 2 3 3 3 1 3 6 5 4 5 3 2 3 5 6 3 7 9 9 9
19 20 22 18 20 23 26 27 27 26 25 25 23 22 21 22 8 5 6 4 9 4 4 3 3 2 2 2 1 1 1 1 4 4 3 2 3 4 2 5 4 6 4 5 6 4 4 5 5 4 4 8 11 8
19 20 21 22 24 23 23 25 26 25 24 23 22 22 22 17 15 4 3 13 7 6 3 3 4 4 2 2 0 0 1 1 2 2 2 3 0 2 6 6 11 11 11 12 13 9 7 5 4 6 2 6 8 9
23 22 22 22 23 25 26 26 25 25 24 23 23 24 8 4 3 2 14 11 4 5 5 3 4 5 1 1 2 2 1 1 1 3 4 4 3 9 7 8 8 10 11 11 9 7 6 7 7 7 6 7 9 10
24 24 24 24 24 24 25 25 25 24 22 27 10 5 3 4 18 10 5 4 3 3 2 4 3 5 3 2 1 1 1 3 4 6 3 5 11 14 6 7 8 8 9 10 7 8 5 5 8 8 8 9 12 14
26 25 26 25 25 25 26 26 27 30 20 4 4 2 3 14 6 2 4 5 3 3 4 5 7 6 3 4 3 3 2 2 3 6 6 5 6 6 15 19 17 19 18 15 8 8 8 9 8 8 8 10 11 11
27 27 27 26 26 26 27 28 32 9 4 9 6 5 4 3 3 5 5 4 6 8 5 7 5 5 3 3 3 3 3 2 6 1 3 5 5 7 11 13 12 11 11 12 11 13 14 11 11 11 9 9 12 17
29 28 28 27 27 27 28 30 22 20 18 4 4 5 4 3 6 8 9 5 5 5 6 5 5 5 2 3 2 4 5 6 0 1 5 5 4 7 6 5 7 7 8 7 9 7 9 9 9 9 9 8 9 12
29 29 29 29 28 28 28 31 28 18 7 3 4 5 5 5 4 4 10 11 6 6 8 10 4 5 3 3 3 5 6 2 3 4 6 5 10 8 6 3 2 7 7 8 8 9 10 8 7 8 9 7 11 13
29 29 29 29 29 28 29 31 28 4 4 4 4 6 5 5 4 5 5 4 3 8 10 6 3 4 3 4 5 3 4 6 7 5 6 5 7 6 7 6 8 8 8 6 5 6 5 4 5 5 1 7 8 10
29 25 17 29 30 30 32 27 11 3 3 3 4 3 2 3 2 2 5 6 5 8 6 3 4 4 5 5 5 8 5 7 6 5 5 2 4 6 7 7 8 7 7 7 4 1 1 2 3 4 5 6 5 12
32 3 29 32 32 31 32 8 3 3 4 4 5 3 2 1 4 3 5 5 3 9 5 5 7 9 3 3 5 6 7 6 4 4 3 4 5 4 7 7 5 5 5 4 4 4 4 4 6 6 6 4 7 7
6 13 31 37 27 24 4 2 4 5 7 6 6 4 4 4 4 3 4 4 7 7 5 6 6 5 5 6 5 6 5 4 4 5 5 6 7 7 6 8 6 6 5 5 5 5 5 6 6 4 8 7 9 9
13 18 34 37 19 7 5 3 3 7 6 4 3 4 5 4 3 4 7 8 5 3 5 4 3 4 8 5 3 3 4 4 5 5 5 7 7 8 8 5 6 5 6 6 6 5 4 4 4 6 6 6 6 6
26 28 28 30 18 3 5 3 2 0 6 6 4 7 6 6 5 3 4 5 6 4 2 9 15 9 4 4 5 5 5 5 3 1 4 5 3 4 7 6 5 5 4 5 4 5 4 4 3 5 6 6 8 7
16 20 30 18 2 3 3 4 5 5 3 3 4 7 3 2 3 8 9 4 3 7 8 6 8 5 5 4 5 4 5 5 6 6 6 4 4 5 4 4 5 4 4 4 5 4 5 5 5 5 6 4 4 5
7 18 5 4 3 3 2 3 5 4 3 1 5 4 4 3 3 3 3 4 9 9 4 7 4 4 3 5 6 7 7 6 5 3 3 4 4 3 4 5 5 4 5 6 6 7 5 5 5 5 5 5 6 6
16 5 4 3 4 5 5 4 4 4 5 6 2 4 2 3 4 4 4 6 5 7 7 6 7 7 9 9 4 5 6 7 5 5 4 4 3 3 4 5 4 5 5 4 3 5 5 7 6 6 6 6 7 6
11 5 6 5 4 5 3 4 4 5 3 4 4 4 4 3 1 3 3 4 5 2 7 9 5 4 2 5 6 7 6 5 4 4 4 5 4 4 4 5 4 4 5 5 6 5 6 6 7 6 7 8 8 8
7 6 5 5 3 6 4 5 5 4 4 5 5 4 3 2 3 4 4 4 4 4 5 5 8 9 10 10 7 6 6 7 6 7 4 5 3 3 2 2 4 4 5 6 4 6 6 7 7 8 9 9 10 9
4 4 5 6 5 6 7 6 7 7 5 3 3 4 3 4 4 7 5 4 5 4 7 9 9 7 7 9 7 5 6 5 5 5 3 6 6 6 6 6 4 3 3 6 8 9 10 9 10 11 8 8 9 10
4 4 4 2 5 5 4 3 3 5 4 5 4 4 3 4 7 6 0 2 2 2 3 4 5 9 9 5 1 1 4 6 6 4 2 5 5 6 7 7 7 5 7 8 9 11 13 11 11 10 8 7 8 9
3 2 5 1 4 2 5 3 4 5 5 4 6 6 10 9 7 1 1 1 2 3 3 4 4 1 3 3 3 5 4 4 6 5 5 5 4 2 3 3 3 9 7 8 9 9 10 11 11 10 11 9 5 4
3 1 5 5 4 3 2 3 4 1 2 5 7 5 4 2 2 1 2 2 2 2 2 3 3 3 4 5 5 4 4 6 9 7 9 4 1 2 1 3 5 4 5 7 7 10 12 10 10 10 10 8 7 6
2 1 4 2 4 2 1 1 2 1 2 3 3 3 2 2 1 2 2 2 2 1 1 1 1 2 2 3 2 3 3 2 2 3 5 5 6 3 4 5 6 5 6 8 8 8 10 8 9 5 7 6 5 5
3 3 4 3 3 0 2 1 2 3 3 3 3 4 2 2 1 2 2 2 3 0 1 1 1 0 3 3 2 3 1 1 2 4 4 4 5 5 5 5 6 6 7 8 9 8 8 7 7 8 9 8 8 8
3 3 4 4 2 1 2 2 2 2 1 2 1 2 2 2 1 2 1 2 2 2 3 3 4 4 2 1 2 1 2 3 2 3 6 5 6 7 6 5 6 7 8 7 7 9 10 10 8 8 8 9 8 7
3 4 4 4 2 3 2 4 2 2 2 1 1 2 1 3 5 2 2 1 2 2 3 2 2 2 3 3 3 3 3 2 5 5 8 8 10 9 6 5 6 7 10 7 7 9 9 11 9 8 8 8 8 7
Wind_Direction
230 247 181 175 159 170 176 171 171 168 168 164 162 162 153 149 142 119 157 125 123 101 322 9 14 22 351 22 143 265 78 346 51 177 141 177 215 213 201 188 169 156 158 191 130 149 257 217 331 199 205 147 157 162
187 179 170 166 157 162 168 165 163 162 163 161 158 151 144 146 148 114 108 345 89 79 187 267 288 101 50 10 150 344 214 132 168 131 153 149 234 224 161 229 159 196 178 180 180 207 236 220 213 262 163 159 178 166
177 162 170 133 159 159 155 145 155 153 153 149 147 147 147 150 149 118 128 145 68 77 344 22 53 332 357 26 210 100 19 342 40 175 157 200 225 140 169 230 195 254 144 174 100 242 241 247 239 186 173 161 171 176
174 166 157 144 131 156 162 134 132 135 135 140 141 141 145 151 144 110 116 145 93 109 120 278 309 321 310 342 92 88 93 339 294 80 112 146 181 165 216 221 182 199 137 179 256 283 269 270 202 188 218 182 176 159
171 167 144 148 136 132 129 137 141 135 133 138 137 141 141 145 118 89 85 89 119 130 172 252 302 275 303 271 308 120 172 142 16 22 44 257 281 2 324 47 257 197 179 155 224 230 175 238 119 142 156 197 191 164
163 168 157 136 150 144 140 136 135 136 139 135 134 139 143 143 121 85 52 328 119 103 97 71 285 302 323 213 205 242 222 157 128 276 206 265 265 82 273 229 246 234 182 154 221 240 215 258 271 183 204 211 189 176
163 156 156 153 138 141 146 142 141 142 143 142 143 144 142 137 125 111 176 182 128 85 86 10 335 303 273 288 310 298 14 193 149 191 201 188 269 124 201 231 266 242 259 254 240 208 220 213 236 291 213 214 187 180
159 156 149 149 148 143 139 138 138 137 138 138 137 128 132 117 104 54 341 121 85 90 70 113 267 342 188 171 289 202 142 58 304 215 344 183 181 153 242 223 221 235 270 282 273 253 205 222 223 253 212 150 165 174
160 155 152 150 147 144 141 141 139 138 137 133 124 122 107 77 99 151 112 72 71 115 145 157 187 224 182 102 114 2 121 79 186 197 231 128 221 224 207 191 208 213 211 231 250 257 235 224 261 267 186 182 176 190
160 155 154 150 148 146 145 144 141 132 122 114 95 66 108 173 130 92 19 64 24 347 87 188 166 197 146 116 170 149 320 236 184 227 161 197 240 240 198 204 212 218 226 236 245 259 259 244 236 252 201 195 200 196
161 157 154 151 149 148 145 143 136 127 110 65 104 126 187 158 67 78 153 149 143 210 213 206 188 148 233 136 175 200 217 217 241 250 174 250 268 224 208 217 226 236 243 248 229 230 220 211 213 224 235 204 198 181
162 158 153 152 151 151 147 143 137 114 106 159 126 121 87 87 134 155 155 160 182 210 198 186 199 146 178 127 121 187 194 196 256 160 144 255 258 228 213 222 230 227 226 235 230 235 246 238 224 228 228 227 193 198
161 159 157 157 156 154 152 150 125 125 124 90 76 137 166 159 180 167 152 153 191 207 184 162 134 141 130 147 151 162 197 227 328 204 232 226 262 261 232 227 237 232 230 235 259 242 242 244 241 212 229 222 189 177
162 161 161 161 159 157 156 151 136 145 92 119 152 145 184 160 191 182 183 181 205 135 142 149 132 142 169 135 148 191 216 139 258 240 229 232 222 241 252 231 190 263 257 241 254 253 243 245 260 255 233 187 165 166
162 161 162 163 161 160 159 148 153 139 110 167 171 183 180 209 184 191 174 107 183 141 143 144 62 117 166 167 195 179 164 237 219 224 225 235 244 247 261 258 249 257 266 273 243 236 246 262 251 281 282 159 148 141
161 154 169 165 163 160 155 150 161 62 77 151 186 198 194 109 282 98 176 194 175 158 136 78 147 182 207 187 163 201 191 218 235 213 227 246 249 253 259 263 253 250 245 229 217 77 186 212 165 129 70 86 120 144
166 161 168 165 165 162 150 135 81 110 165 196 211 209 182 94 173 178 157 182 136 153 173 135 180 208 135 182 205 190 209 219 213 247 232 228 229 250 270 277 261 206 201 162 142 167 146 119 112 113 122 102 110 106
161 151 159 165 158 162 88 84 134 162 195 204 188 192 186 172 159 196 191 182 150 199 171 197 135 194 197 189 228 226 228 235 218 231 236 257 256 257 258 244 187 201 191 168 157 137 125 134 131 118 118 121 109 117
143 155 157 162 146 104 124 159 192 185 206 184 171 163 170 201 210 181 191 194 204 175 131 147 202 212 216 210 183 194 229 212 237 246 243 252 242 247 233 183 178 182 164 166 166 170 160 149 137 137 137 141 136 142
141 149 145 141 138 129 120 120 135 3 200 191 155 186 192 206 196 173 196 183 185 150 183 215 217 218 171 210 208 198 206 213 166 270 281 269 260 194 189 170 185 166 146 126 123 119 125 108 127 144 151 150 149 160
129 136 140 143 114 113 113 153 176 187 176 184 139 146 203 109 164 200 213 152 156 212 218 216 230 233 212 227 207 214 229 176 205 191 221 260 214 191 177 189 164 150 147 163 162 169 165 172 162 153 151 149 125 143
107 127 130 85 99 183 170 192 144 161 120 167 143 140 141 166 196 195 126 173 233 251 210 216 217 190 210 229 225 204 222 212 211 198 156 127 136 168 201 191 153 169 176 181 175 176 178 151 152 150 138 142 132 135
109 91 89 109 142 182 146 144 120 169 144 161 129 115 225 207 203 129 203 200 206 212 191 195 214 194 211 233 226 242 201 195 208 213 213 214 205 157 143 169 168 162 179 207 165 155 158 148 146 136 140 140 138 144
77 105 163 145 117 195 151 133 144 119 93 121 174 143 185 188 176 154 237 237 241 169 206 215 176 188 184 180 201 215 201 173 209 225 209 170 191 212 182 183 186 195 185 144 155 139 137 147 143 144 151 152 158 154
126 172 143 130 157 127 134 137 136 124 149 180 152 132 149 160 210 217 217 250 200 210 201 184 192 198 210 224 230 216 179 180 191 209 207 175 125 96 171 207 208 194 143 129 134 142 140 144 150 154 157 162 163 162
116 193 151 147 156 136 156 142 172 161 142 121 113 115 138 152 164 238 225 210 210 209 201 195 191 199 223 216 203 197 203 185 162 190 207 178 179 166 183 181 185 251 192 158 145 153 155 159 158 158 158 162 157 147
136 217 191 175 125 128 84 91 98 99 116 144 143 145 131 172 230 243 148 7 337 302 302 277 209 210 220 188 168 146 154 156 173 196 174 174 182 182 170 180 196 212 158 159 160 159 161 164 163 164 155 155 168 166
158 68 120 162 78 71 122 101 131 161 164 157 124 168 177 200 224 112 36 314 326 348 359 359 10 88 153 165 138 123 77 90 93 90 82 56 38 48 107 98 111 143 150 154 151 151 158 162 162 157 161 166 168 166
76 102 84 45 63 61 93 159 177 116 151 156 165 190 193 69 44 24 323 312 333 41 33 5 5 9 58 62 58 42 111 149 142 155 171 172 157 284 350 115 120 117 127 133 140 147 152 151 155 160 160 159 158 146
173 104 91 80 101 120 122 343 106 290 36 104 107 87 85 76 24 333 350 4 357 356 217 212 40 57 126 114 118 62 26 39 57 137 175 193 208 167 148 136 131 128 129 130 124 115 108 104 104 94 113 120 133 138
119 79 73 71 88 146 197 252 58 67 48 52 34 97 123 122 12 3 7 333 318 90 85 194 264 115 129 138 145 135 215 283 173 146 138 131 138 142 133 130 131 128 129 132 135 136 133 131 134 136 143 145 153 150
62 109 117 105 109 262 49 95 113 92 94 81 86 95 122 124 193 214 279 314 278 226 220 200 214 238 225 177 144 133 157 143 155 131 132 132 136 133 122 119 120 121 123 115 125 137 139 138 143 147 148 151 156 158
71 67 68 84 95 161 206 95 70 75 61 103 149 126 120 148 202 205 284 287 270 246 183 165 117 105 111 104 103 94 96 127 140 119 115 122 126 127 127 124 118 120 127 127 133 134 133 136 142 144 146 151 152 148